This demonstration page uses our WeatherBlox Daily Observations layout. Learn more.

Left ArrowRight Arrow

39.08367, -84.50855

Hourly Observations for May 15, 2019

Temp ( °F °C ) Dew Point ( °F °C ) Humidity (%) Winds ( mph kmh ) Pressure ( in mb ) Visibility ( mi km ) Precip ( " mm )
12:53 am 00:53 Mostly Clear 48 8.9 45 7.2 89 89 Calm 30.04 1017 10 16.0934 0 0
1:53 am 01:53 Mostly Cloudy 48 8.9 45 7.2 89 89 Calm 30.03 1017 10 16.0934 0 0
2:53 am 02:53 Cloudy 48 8.9 46 7.8 93 93 Calm 30.03 1017 10 16.0934 0 0
3:53 am 03:53 Mostly Cloudy 48 8.9 45 7.2 89 89 Calm 30.02 1017 10 16.0934 0 0
4:53 am 04:53 Clear with Mist and Fog 46 7.8 44 6.7 93 93 Calm 30.01 1016 2.5 4.02335 0 0
5:07 am 05:07 Clear with Mist and Fog 46 7.8 44 6.7 93 93 Calm 30.02 1017 6 9.65604 0 0
5:20 am 05:20 Clear with Mist and Fog 45 7.2 44 6.7 97 97 Calm 30.03 1017 1.5 2.41401 0 0
5:32 am 05:32 Clear with Mist and Fog 46 7.8 44 6.7 93 93 Calm 30.03 1017 3 4.82802 0 0
5:34 am 05:34 Clear with Mist and Fog 45 7.2 44 6.7 97 97 Calm 30.03 1017 1.75 2.816345 0 0
5:43 am 05:43 Clear with Mist and Fog 45 7.2 44 6.7 97 97 Calm 30.03 1017 3 4.82802 0 0
5:53 am 05:53 Clear 45 7.2 43 6.1 93 93 Calm 30.01 1016 7 11.26538 0 0
6:04 am 06:04 Clear with Mist and Fog 44 6.7 43 6.1 96 96 Calm 30.03 1017 1.5 2.41401 0 0
6:18 am 06:18 Clear with Mist and Fog 45 7.2 44 6.7 97 97 VRB 3 6 30.03 1017 3 4.82802 0 0
6:53 am 06:53 Partly Cloudy 45 7.2 44 6.7 97 97 Calm 30.02 1017 7 11.26538 0 0
7:53 am 07:53 Mostly Sunny 50 10 48 8.9 93 93 Calm 30.04 1017 8 12.87472 0 0
8:53 am 08:53 Mostly Sunny 54 12.2 49 9.4 83 83 Calm 30.04 1017 10 16.0934 0 0
9:53 am 09:53 Cloudy 59 15 50 10 72 72 Calm 30.04 1017 10 16.0934 0 0
10:53 am 10:53 Mostly Cloudy 64 17.8 51 10.6 63 63 S 6 9 30.04 1017 10 16.0934 0 0
11:53 am 11:53 Partly Cloudy 68 20 49 9.4 51 51 W 7 11 30.03 1017 10 16.0934 0 0
12:53 pm 12:53 Mostly Cloudy 69 20.6 45 7.2 42 42 WSW 5 7 30.02 1017 10 16.0934 0 0
1:53 pm 13:53 Mostly Cloudy 70 21.1 48 8.9 46 46 SW 9 15 30.01 1016 10 16.0934 0 0
2:53 pm 14:53 Cloudy 70 21.1 49 9.4 47 47 WSW 7 11 30 1016 10 16.0934 0 0
3:53 pm 15:53 Mostly Cloudy 70 21.1 49 9.4 47 47 SSW 9 15 29.98 1015 10 16.0934 0 0
4:53 pm 16:53 Mostly Cloudy 69 20.6 50 10 51 51 SW 8 13 29.98 1015 10 16.0934 0 0
5:53 pm 17:53 Cloudy 68 20 50 10 53 53 SW 8 13 29.98 1015 10 16.0934 0 0
6:53 pm 18:53 Cloudy 67 19.4 51 10.6 57 57 SW 5 7 29.97 1015 10 16.0934 0 0
7:53 pm 19:53 Partly Cloudy 66 18.9 51 10.6 59 59 SW 7 11 29.97 1015 10 16.0934 0 0
8:53 pm 20:53 Clear 59 15 51 10.6 75 75 S 6 9 29.98 1015 10 16.0934 0 0
9:53 pm 21:53 Clear 57 13.9 50 10 78 78 Calm 29.98 1015 10 16.0934 0 0
10:53 pm 22:53 Partly Cloudy 53 11.7 51 10.6 93 93 SSE 3 6 30.01 1016 10 16.0934 0 0
11:53 pm 23:53 Clear 52 11.1 49 9.4 89 89 Calm 30 1016 10 16.0934 0 0

Powered by AerisWeather